Change the Weather History Date:

Wednesday, December 12, 2012

  Actual Average Record
Temperature  
Mean Temperature 37 °F -  
Max Temperature 62 °F 41 °F 63 °F (1968)
Min Temperature 12 °F 16 °F -16 °F (1961)
Degree Days  
Heating Degree Days 28    
Moisture  
Dew Point 11 °F    
Average Humidity 51    
Maximum Humidity 81    
Minimum Humidity 13    
Precipitation  
Precipitation 0.01 in - - ()
Sea Level Pressure  
Sea Level Pressure 29.79 in    
Wind  
Wind Speed 5 mph (WSW)    
Max Wind Speed 12 mph    
Max Gust Speed 16 mph    
Visibility 10 miles    
Events      
Averages and records for this station are not official NWS values.
T = Trace of Precipitation, MM = Missing Value Source: NWS Daily Summary

Daily Weather History Graph

Daily Weather History Graph

Search for Another Location

Airport or City:

Trip Planner

Search our weather history database for the weather conditions in past years. The results will help you decide how hot, cold, wet, or windy it might be!

Date:

Astronomy

Dec. 12, 2012 Rise Set
Actual Time 7:03 AM MST 4:18 PM MST
Civil Twilight 6:32 AM MST 4:49 PM MST
Nautical Twilight 5:57 AM MST 5:24 PM MST
Astronomical Twilight 5:24 AM MST 5:57 PM MST
Moon 6:09 AM MST (12/12) 3:58 PM MST (12/12)
Length of Visible Light 10h 17m
Length of Day
9h 15m
Waning Crescent, 0% of the Moon is Illuminated
Dec 12
Waning Crescent
Dec 13
New
Dec 19
First Quarter
Dec 28
Full
Jan 4
Last Quarter

Hourly Weather History & Observations

Time (MST) Temp. Windchill Dew Point Humidity Pressure Visibility Wind Dir Wind Speed Gust Speed Precip Events Conditions
12:15 AM 19.8 °F 13.2 °F 9.7 °F 65% 29.79 in 10.0 mi SW 4.6 mph - N/A   Clear
12:35 AM 18.9 °F 9.8 °F 9.0 °F 65% 29.79 in 10.0 mi SW 6.9 mph - N/A   Clear
12:55 AM 18.5 °F 11.7 °F 9.5 °F 68% 29.78 in 10.0 mi SW 4.6 mph - N/A   Clear
1:15 AM 19.0 °F 13.9 °F 9.3 °F 66% 29.78 in 10.0 mi SSW 3.5 mph - N/A   Clear
1:35 AM 18.3 °F - 9.3 °F 68% 29.79 in 10.0 mi Calm Calm - N/A   Clear
1:55 AM 15.4 °F 8.1 °F 7.3 °F 70% 29.79 in 10.0 mi West 4.6 mph - N/A   Clear
2:15 AM 16.7 °F 11.2 °F 8.6 °F 70% 29.78 in 10.0 mi West 3.5 mph - N/A   Clear
2:35 AM 15.4 °F 4.6 °F 8.2 °F 73% 29.77 in 10.0 mi West 8.1 mph - N/A   Clear
2:55 AM 15.1 °F 6.4 °F 8.1 °F 74% 29.78 in 10.0 mi West 5.8 mph - N/A   Clear
3:15 AM 13.8 °F 4.9 °F 7.5 °F 76% 29.78 in 10.0 mi WSW 5.8 mph - N/A   Clear
3:35 AM 12.2 °F 2.9 °F 6.4 °F 78% 29.77 in 10.0 mi WSW 5.8 mph - N/A   Clear
3:55 AM 13.8 °F 4.9 °F 7.3 °F 75% 29.77 in 10.0 mi SW 5.8 mph - N/A   Clear
4:15 AM 13.6 °F 2.5 °F 6.8 °F 74% 29.78 in 10.0 mi WSW 8.1 mph - N/A   Clear
4:35 AM 14.2 °F 4.1 °F 7.7 °F 75% 29.77 in 10.0 mi WSW 6.9 mph - N/A   Clear
4:55 AM 12.7 °F 6.7 °F 7.0 °F 78% 29.77 in 10.0 mi West 3.5 mph - N/A   Clear
5:15 AM 12.9 °F 5.2 °F 7.5 °F 79% 29.78 in 10.0 mi WSW 4.6 mph - N/A   Clear
5:35 AM 13.8 °F 6.2 °F 8.1 °F 78% 29.78 in 10.0 mi WSW 4.6 mph - N/A   Clear
5:55 AM 13.6 °F 6.0 °F 7.9 °F 78% 29.78 in 10.0 mi WSW 4.6 mph - N/A   Clear
6:15 AM 14.5 °F - 8.6 °F 77% 29.79 in 10.0 mi Calm Calm - N/A   Clear
6:35 AM 14.4 °F - 8.6 °F 78% 29.78 in 10.0 mi Calm Calm - N/A   Clear
6:55 AM 12.9 °F 5.2 °F 7.5 °F 79% 29.79 in 10.0 mi WSW 4.6 mph - N/A   Clear
7:15 AM 12.6 °F 4.8 °F 7.7 °F 81% 29.79 in 10.0 mi West 4.6 mph - N/A   Clear
7:35 AM 15.1 °F 6.4 °F 9.5 °F 79% 29.79 in 10.0 mi West 5.8 mph - N/A   Clear
7:55 AM 17.4 °F 10.4 °F 11.3 °F 77% 29.79 in 10.0 mi WSW 4.6 mph - N/A   Clear
8:15 AM 20.7 °F 14.2 °F 14.0 °F 75% 29.79 in 7.0 mi WSW 4.6 mph - N/A   Clear
8:35 AM 26.2 °F 18.6 °F 16.0 °F 65% 29.79 in 10.0 mi WSW 6.9 mph - N/A   Clear
8:55 AM 29.1 °F 22.1 °F 16.3 °F 59% 29.79 in 10.0 mi WSW 6.9 mph - N/A   Clear
9:15 AM 33.4 °F 24.8 °F 17.1 °F 51% 29.79 in 4.0 mi West 11.5 mph - N/A   Haze
9:35 AM 35.6 °F 30.7 °F 16.3 °F 46% 29.79 in 10.0 mi WSW 5.8 mph - N/A   Clear
9:55 AM 36.9 °F 32.2 °F 16.9 °F 44% 29.79 in 10.0 mi West 5.8 mph - N/A   Clear
10:15 AM 39.2 °F - 16.7 °F 40% 29.79 in 10.0 mi Calm Calm - N/A   Clear
10:35 AM 41.0 °F - 16.5 °F 37% 29.79 in 10.0 mi Calm Calm - N/A   Clear
10:55 AM 43.9 °F 42.3 °F 17.8 °F 35% 29.78 in 10.0 mi West 3.5 mph - N/A   Clear
11:15 AM 46.9 °F - 18.0 °F 32% 29.77 in 10.0 mi Calm Calm - N/A   Clear
11:35 AM 50.0 °F - 18.1 °F 28% 29.76 in 10.0 mi WSW 3.5 mph - N/A   Clear
11:55 AM 52.7 °F - 17.1 °F 25% 29.75 in 10.0 mi WSW 3.5 mph - N/A   Clear
12:15 PM 54.5 °F - 17.1 °F 23% 29.74 in 7.0 mi Calm Calm - N/A   Clear
12:55 PM 58.8 °F - 17.1 °F 20% 29.73 in 7.0 mi West 4.6 mph - N/A   Clear
1:15 PM 59.5 °F - 16.0 °F 18% 29.72 in 5.0 mi WSW 4.6 mph - N/A   Haze
1:35 PM 61.3 °F - 12.0 °F 14% 29.71 in 7.0 mi SSW 11.5 mph - N/A   Clear
1:55 PM 61.7 °F - 11.3 °F 14% 29.72 in 10.0 mi SSW 10.4 mph 16.1 mph N/A   Clear
2:15 PM 62.4 °F - 11.3 °F 14% 29.71 in 10.0 mi SSW 10.4 mph 16.1 mph N/A   Clear
2:56 PM 62.6 °F - 10.4 °F 13% 29.73 in 10.0 mi SSW 3.5 mph - N/A   Clear
3:16 PM 59.0 °F - 12.2 °F 16% 29.73 in 7.0 mi West 4.6 mph - N/A   Clear
3:36 PM 57.2 °F - 14.0 °F 18% 29.73 in 10.0 mi Calm Calm - 0.01 in   Clear
4:15 PM 51.8 °F - 11.5 °F 20% 29.74 in 10.0 mi West 4.6 mph - N/A   Clear
4:35 PM 50.2 °F - 11.5 °F 21% 29.75 in 10.0 mi WSW 5.8 mph - N/A   Clear
5:15 PM 47.7 °F - 11.1 °F 23% 29.77 in 10.0 mi SSW 3.5 mph - N/A   Clear
5:35 PM 47.8 °F - 10.9 °F 23% 29.78 in 10.0 mi South 3.5 mph - N/A   Clear
5:55 PM 44.4 °F 42.9 °F 10.4 °F 25% 29.77 in 10.0 mi SSE 3.5 mph - N/A   Clear
6:15 PM 41.0 °F - 8.8 °F 27% 29.78 in 10.0 mi Calm Calm - N/A   Clear
6:35 PM 33.3 °F - 7.9 °F 35% 29.79 in 10.0 mi Calm Calm - N/A   Clear
6:55 PM 30.0 °F 26.5 °F 8.1 °F 40% 29.79 in 10.0 mi NNW 3.5 mph - N/A   Clear
7:15 PM 31.3 °F 27.9 °F 7.7 °F 37% 29.80 in 10.0 mi NW 3.5 mph - N/A   Clear
7:35 PM 27.7 °F 22.4 °F 9.5 °F 46% 29.80 in 10.0 mi West 4.6 mph - N/A   Clear
7:55 PM 25.9 °F 18.2 °F 9.5 °F 50% 29.82 in 10.0 mi West 6.9 mph - N/A   Clear
8:15 PM 26.2 °F 22.1 °F 9.7 °F 50% 29.82 in 10.0 mi WSW 3.5 mph - N/A   Clear
8:35 PM 25.3 °F 17.6 °F 9.7 °F 52% 29.83 in 10.0 mi West 6.9 mph - N/A   Clear
8:55 PM 26.1 °F 16.8 °F 9.7 °F 50% 29.84 in 10.0 mi West 9.2 mph - N/A   Clear
9:15 PM 26.4 °F 17.3 °F 10.8 °F 52% 29.84 in 10.0 mi West 9.2 mph - N/A   Clear
9:35 PM 24.3 °F 15.4 °F 10.4 °F 56% 29.84 in 10.0 mi WSW 8.1 mph - N/A   Clear
9:55 PM 24.1 °F 17.0 °F 9.5 °F 54% 29.84 in 10.0 mi West 5.8 mph - N/A   Clear
10:15 PM 24.6 °F 16.7 °F 10.9 °F 56% 29.84 in 10.0 mi WSW 6.9 mph - N/A   Clear
10:35 PM 25.3 °F 18.5 °F 11.8 °F 57% 29.85 in 10.0 mi West 5.8 mph - N/A   Clear
10:55 PM 23.9 °F 15.8 °F 10.2 °F 56% 29.86 in 10.0 mi West 6.9 mph - N/A   Clear
11:15 PM 24.3 °F 14.6 °F 11.1 °F 57% 29.86 in 10.0 mi WSW 9.2 mph - N/A   Clear
11:35 PM 23.7 °F 16.6 °F 11.7 °F 60% 29.86 in 10.0 mi WSW 5.8 mph - N/A   Clear
11:55 PM 25.9 °F 19.2 °F 12.0 °F 56% 29.86 in 10.0 mi West 5.8 mph - N/A   Clear